This is the latest recevied weather packets stored in our database for station/object SP1BMW-13. If no packets are shown the sender has not sent any weather packets the latest 10 day(s).
| Time | Temp. | Humidity | Pressure | Rain* | Wind** | Luminosity | Snow |
|---|---|---|---|---|---|---|---|
| 1777137585 | 11.67° C | 58% | 1009 hPa | 0 mm | 3.58 m/s, 267° | 42 W/m² | - |
| 1777137525 | 11.67° C | 59% | 1009.2 hPa | 0 mm | 0.89 m/s, 292° | 46 W/m² | - |
| 1777137465 | 11.67° C | 58% | 1009.1 hPa | 0 mm | 4.02 m/s, 295° | 48 W/m² | - |
| 1777137405 | 11.67° C | 58% | 1009.1 hPa | 0 mm | 2.24 m/s, 333° | 47 W/m² | - |
| 1777137345 | 11.67° C | 58% | 1009.2 hPa | 0 mm | 3.13 m/s, 262° | 46 W/m² | - |
| 1777137285 | 11.67° C | 57% | 1009.2 hPa | 0 mm | 4.02 m/s, 285° | 46 W/m² | - |
| 1777137225 | 11.67° C | 58% | 1009.1 hPa | 0 mm | 2.68 m/s, 253° | 49 W/m² | - |
| 1777137165 | 11.67° C | 58% | 1009.1 hPa | 0 mm | 3.13 m/s, 284° | 59 W/m² | - |
| 1777137105 | 11.67° C | 58% | 1009.2 hPa | 0 mm | 2.68 m/s, 268° | 76 W/m² | - |
| 1777137045 | 11.67° C | 58% | 1009.2 hPa | 0 mm | 4.02 m/s, 315° | 83 W/m² | - |
| 1777136985 | 11.67° C | 58% | 1009 hPa | 0 mm | 3.58 m/s, 329° | 78 W/m² | - |
| 1777136925 | 11.67° C | 59% | 1009.2 hPa | 0 mm | 4.02 m/s, 289° | 62 W/m² | - |
| 1777136865 | 11.67° C | 58% | 1009.1 hPa | 0 mm | 2.68 m/s, 304° | 67 W/m² | - |
| 1777136805 | 12.22° C | 59% | 1009 hPa | 0 mm | 3.58 m/s, 291° | 50 W/m² | - |
| 1777136745 | 12.22° C | 58% | 1009.2 hPa | 0 mm | 3.13 m/s, 272° | 50 W/m² | - |
| 1777136685 | 12.22° C | 59% | 1009 hPa | 0 mm | 2.24 m/s, 13° | 53 W/m² | - |
| 1777136628 | 12.22° C | 59% | 1009.1 hPa | 0 mm | 4.02 m/s, 295° | 56 W/m² | - |
| 1777136575 | 12.22° C | 58% | 1009 hPa | 0 mm | 3.58 m/s, 219° | 57 W/m² | - |
| 1777136505 | 12.22° C | 58% | 1009 hPa | 0 mm | 3.13 m/s, 259° | 62 W/m² | - |
| 1777136445 | 12.22° C | 59% | 1008.8 hPa | 0 mm | 4.92 m/s, 264° | 73 W/m² | - |
| 1777136385 | 12.22° C | 58% | 1009 hPa | 0 mm | 3.58 m/s, 303° | 78 W/m² | - |
| 1777136325 | 12.22° C | 58% | 1009 hPa | 0 mm | 3.58 m/s, 289° | 70 W/m² | - |
| 1777136265 | 12.22° C | 59% | 1008.8 hPa | 0 mm | 1.79 m/s, 299° | 67 W/m² | - |
| 1777136205 | 12.78° C | 59% | 1009 hPa | 0 mm | 2.68 m/s, 265° | 73 W/m² | - |
| 1777136145 | 12.78° C | 58% | 1009.1 hPa | 0 mm | 3.13 m/s, 294° | 82 W/m² | - |
* Rain latest hour (hover to see other rain measurements)
** Current wind speed in m/s (hover to see current wind gust speed)